When you browse on this site, cookies collect data to enhance your experience and personalize the content and advertising you see.
Visit our Privacy Policy to learn more. By continuing to use the site, you agree to this use of cookies and data.
  • In Österreich
  • Länderverzeichnis
  • Für 7 Tage
  • Wassertemperatur
  • Wetterkarte
  • News
  • Widgets
  • user-avatar
    Anmelden

    Stündliche Wetter Stoughton

    Heute, 15 September, Sonntag

    Zeit Temperatur Niederschläge Wind Luftdruck Luftfeuchtigkeit
    00:00 +20°C° 0 mm 3 m/S 760 mmHg 93%
    01:00 +20°C° 0 mm 3 m/S 759 mmHg 94%
    02:00 +19°C° 0 mm 3 m/S 759 mmHg 94%
    03:00 +19°C° 0 mm 2 m/S 759 mmHg 95%
    04:00 +18°C° 0 mm 2 m/S 759 mmHg 96%
    05:00 +19°C° 0 mm 2 m/S 759 mmHg 94%
    06:00 +20°C° 0 mm 1 m/S 759 mmHg 91%
    07:00 +20°C° 0 mm 1 m/S 759 mmHg 89%
    08:00 +22°C° 0 mm 1 m/S 759 mmHg 77%
    09:00 +24°C° 0 mm 2 m/S 759 mmHg 64%
    10:00 +26°C° 0 mm 2 m/S 759 mmHg 52%
    11:00 +26°C° 0 mm 2 m/S 758 mmHg 48%
    12:00 +27°C° 0 mm 2 m/S 758 mmHg 44%
    13:00 +28°C° 0 mm 2 m/S 758 mmHg 40%
    14:00 +28°C° 0 mm 2 m/S 757 mmHg 42%
    15:00 +27°C° 0 mm 2 m/S 757 mmHg 44%
    16:00 +27°C° 0 mm 2 m/S 756 mmHg 45%
    17:00 +25°C° 0 mm 2 m/S 757 mmHg 52%
    18:00 +23°C° 0 mm 2 m/S 757 mmHg 59%
    19:00 +20°C° 0 mm 2 m/S 757 mmHg 66%
    20:00 +20°C° 0 mm 2 m/S 757 mmHg 67%
    21:00 +19°C° 0 mm 2 m/S 757 mmHg 67%
    22:00 +19°C° 0 mm 1 m/S 757 mmHg 68%
    23:00 +19°C° 0 mm 1 m/S 757 mmHg 69%

    Morgen, 16 September, Montag

    Zeit Temperatur Niederschläge Wind Luftdruck Luftfeuchtigkeit
    00:00 +19°C° 0 mm 1 m/S 757 mmHg 71%
    01:00 +18°C° 0 mm 1 m/S 757 mmHg 72%
    02:00 +18°C° 0 mm 1 m/S 757 mmHg 73%
    03:00 +18°C° 0 mm 1 m/S 757 mmHg 74%
    04:00 +18°C° 0 mm 1 m/S 756 mmHg 76%
    05:00 +18°C° 0 mm 1 m/S 757 mmHg 74%
    06:00 +18°C° 0 mm 1 m/S 757 mmHg 73%
    07:00 +19°C° 0 mm 1 m/S 757 mmHg 72%
    08:00 +19°C° 0.1 mm 1 m/S 757 mmHg 73%
    09:00 +18°C° 0.1 mm 1 m/S 757 mmHg 73%
    10:00 +18°C° 0.1 mm 1 m/S 757 mmHg 74%
    11:00 +19°C° 0 mm 1 m/S 757 mmHg 72%
    12:00 +20°C° 0 mm 1 m/S 756 mmHg 70%
    13:00 +18°C° 0 mm 0 m/S 756 mmHg 68%
    14:00 +21°C° 0 mm 1 m/S 755 mmHg 68%
    15:00 +22°C° 0 mm 1 m/S 755 mmHg 68%
    16:00 +21°C° 0 mm 2 m/S 755 mmHg 67%
    17:00 +21°C° 0.1 mm 1 m/S 755 mmHg 74%
    18:00 +20°C° 0.1 mm 1 m/S 756 mmHg 81%
    19:00 +18°C° 0.1 mm 1 m/S 756 mmHg 89%
    20:00 +17°C° 0 mm 2 m/S 756 mmHg 86%
    21:00 +16°C° 0 mm 2 m/S 757 mmHg 84%
    22:00 +15°C° 0 mm 2 m/S 757 mmHg 81%
    23:00 +15°C° 0 mm 2 m/S 757 mmHg 81%

    übermorgen, 17 September, Dienstag

    Zeit Temperatur Niederschläge Wind Luftdruck Luftfeuchtigkeit
    00:00 +14°C° 0 mm 3 m/S 757 mmHg 80%
    01:00 +14°C° 0 mm 3 m/S 758 mmHg 79%
    02:00 +13°C° 0 mm 3 m/S 758 mmHg 79%
    03:00 +13°C° 0 mm 3 m/S 758 mmHg 79%
    04:00 +12°C° 0 mm 3 m/S 758 mmHg 78%
    05:00 +13°C° 0 mm 3 m/S 758 mmHg 76%
    06:00 +14°C° 0 mm 2 m/S 759 mmHg 74%
    07:00 +15°C° 0 mm 2 m/S 759 mmHg 72%
    08:00 +16°C° 0 mm 3 m/S 759 mmHg 66%
    09:00 +17°C° 0 mm 3 m/S 760 mmHg 61%
    10:00 +19°C° 0 mm 4 m/S 760 mmHg 55%
    11:00 +19°C° 0 mm 4 m/S 760 mmHg 53%
    12:00 +20°C° 0 mm 4 m/S 759 mmHg 52%
    13:00 +20°C° 0 mm 4 m/S 759 mmHg 50%
    14:00 +19°C° 0 mm 4 m/S 759 mmHg 52%
    15:00 +19°C° 0 mm 3 m/S 759 mmHg 53%
    16:00 +18°C° 0 mm 3 m/S 759 mmHg 55%
    17:00 +17°C° 0 mm 3 m/S 759 mmHg 62%
    18:00 +15°C° 0 mm 2 m/S 760 mmHg 69%
    19:00 +14°C° 0 mm 2 m/S 760 mmHg 76%
    20:00 +13°C° 0 mm 1 m/S 760 mmHg 79%
    21:00 +13°C° 0 mm 1 m/S 761 mmHg 81%
    22:00 +11°C° 0 mm 0 m/S 761 mmHg 84%
    23:00 +13°C° 0 mm 1 m/S 761 mmHg 82%

    18 September, Mittwoch

    Zeit Temperatur Niederschläge Wind Luftdruck Luftfeuchtigkeit
    00:00 +13°C° 0 mm 1 m/S 761 mmHg 80%
    01:00 +13°C° 0 mm 1 m/S 761 mmHg 78%
    02:00 +13°C° 0 mm 1 m/S 761 mmHg 80%
    03:00 +13°C° 0 mm 1 m/S 761 mmHg 82%
    04:00 +12°C° 0 mm 2 m/S 761 mmHg 84%
    05:00 +13°C° 0 mm 2 m/S 761 mmHg 80%
    06:00 +14°C° 0 mm 2 m/S 762 mmHg 77%
    07:00 +14°C° 0 mm 2 m/S 762 mmHg 74%
    08:00 +16°C° 0 mm 3 m/S 762 mmHg 67%
    09:00 +17°C° 0 mm 3 m/S 762 mmHg 60%
    10:00 +18°C° 0 mm 3 m/S 762 mmHg 52%
    11:00 +18°C° 0 mm 4 m/S 762 mmHg 51%
    12:00 +19°C° 0 mm 4 m/S 762 mmHg 50%
    13:00 +19°C° 0 mm 4 m/S 762 mmHg 49%
    14:00 +18°C° 0 mm 4 m/S 762 mmHg 51%
    15:00 +17°C° 0 mm 4 m/S 762 mmHg 52%
    16:00 +17°C° 0 mm 4 m/S 762 mmHg 53%
    17:00 +14°C° 0 mm 3 m/S 762 mmHg 57%
    18:00 +13°C° 0 mm 2 m/S 763 mmHg 60%
    19:00 +12°C° 0 mm 2 m/S 763 mmHg 63%
    20:00 +10°C° 0 mm 2 m/S 763 mmHg 67%
    21:00 +11°C° 0 mm 1 m/S 763 mmHg 71%
    22:00 +11°C° 0 mm 1 m/S 764 mmHg 74%
    23:00 +10°C° 0 mm 1 m/S 764 mmHg 76%

    19 September, Donnerstag

    Zeit Temperatur Niederschläge Wind Luftdruck Luftfeuchtigkeit
    00:00 +10°C° 0 mm 1 m/S 764 mmHg 77%
    01:00 +9°C° 0 mm 0 m/S 764 mmHg 79%
    02:00 +9°C° 0 mm 0 m/S 764 mmHg 79%
    03:00 +10°C° 0 mm 1 m/S 763 mmHg 79%
    04:00 +9°C° 0 mm 1 m/S 763 mmHg 79%
    05:00 +10°C° 0 mm 1 m/S 763 mmHg 75%
    06:00 +11°C° 0 mm 1 m/S 764 mmHg 72%
    07:00 +13°C° 0 mm 1 m/S 764 mmHg 68%
    08:00 +15°C° 0 mm 1 m/S 764 mmHg 60%
    09:00 +18°C° 0 mm 1 m/S 764 mmHg 51%
    10:00 +21°C° 0 mm 1 m/S 764 mmHg 43%
    11:00 +22°C° 0 mm 1 m/S 763 mmHg 41%
    12:00 +22°C° 0 mm 1 m/S 763 mmHg 39%
    13:00 +23°C° 0 mm 1 m/S 763 mmHg 37%
    14:00 +23°C° 0 mm 1 m/S 762 mmHg 39%
    15:00 +21°C° 0 mm 2 m/S 762 mmHg 40%
    16:00 +21°C° 0 mm 2 m/S 762 mmHg 42%
    17:00 +18°C° 0 mm 2 m/S 762 mmHg 49%
    18:00 +16°C° 0 mm 2 m/S 762 mmHg 57%
    19:00 +13°C° 0 mm 3 m/S 762 mmHg 64%
    20:00 +13°C° 0 mm 2 m/S 762 mmHg 67%
    21:00 +12°C° 0 mm 2 m/S 763 mmHg 71%
    22:00 +12°C° 0 mm 2 m/S 763 mmHg 74%
    23:00 +12°C° 0 mm 2 m/S 762 mmHg 76%

    20 September, Freitag

    Zeit Temperatur Niederschläge Wind Luftdruck Luftfeuchtigkeit
    00:00 +10°C° 0 mm 2 m/S 762 mmHg 78%
    01:00 +10°C° 0 mm 2 m/S 762 mmHg 80%
    02:00 +10°C° 0 mm 2 m/S 762 mmHg 82%
    03:00 +10°C° 0 mm 2 m/S 762 mmHg 84%
    04:00 +10°C° 0 mm 2 m/S 761 mmHg 86%
    05:00 +12°C° 0 mm 2 m/S 761 mmHg 82%
    06:00 +13°C° 0 mm 1 m/S 761 mmHg 78%
    07:00 +14°C° 0 mm 1 m/S 761 mmHg 75%
    08:00 +19°C° 0 mm 1 m/S 761 mmHg 65%
    09:00 +22°C° 0 mm 1 m/S 761 mmHg 56%
    10:00 +23°C° 0 mm 0 m/S 762 mmHg 47%
    11:00 +24°C° 0 mm 0 m/S 761 mmHg 43%
    12:00 +27°C° 0 mm 1 m/S 760 mmHg 39%
    13:00 +28°C° 0 mm 1 m/S 760 mmHg 35%
    14:00 +28°C° 0 mm 1 m/S 759 mmHg 39%
    15:00 +27°C° 0 mm 1 m/S 759 mmHg 43%
    16:00 +27°C° 0 mm 1 m/S 759 mmHg 47%
    17:00 +24°C° 0 mm 1 m/S 759 mmHg 55%
    18:00 +22°C° 0 mm 1 m/S 759 mmHg 63%
    19:00 +19°C° 0 mm 2 m/S 759 mmHg 71%
    20:00 +18°C° 0 mm 2 m/S 759 mmHg 71%
    21:00 +18°C° 0 mm 2 m/S 759 mmHg 71%
    22:00 +18°C° 0 mm 2 m/S 759 mmHg 71%
    23:00 +18°C° 0 mm 2 m/S 759 mmHg 72%
    Mehr zeigen